When you browse on this site, cookies collect data to enhance your experience and personalize the content and advertising you see.
Visit our Privacy Policy to learn more. By continuing to use the site, you agree to this use of cookies and data.
  • In Schweiz
  • Länderverzeichnis
  • Für 7 Tage
  • Wassertemperatur
  • Satellitenkarten
  • Wetterkarte
  • Widgets
  • user-avatar
    Anmelden

    Stündliche Wetter Canillo

    Heute, 23 Januar, Mittwoch

    Zeit Temperatur Niederschläge Wind Luftdruck Luftfeuchtigkeit
    00:00 -8°C° 0 mm 2 m/S 604 mmHg 86%
    01:00 -6°C° 0.6 mm 1 m/S 604 mmHg 87%
    02:00 -6°C° 0.6 mm 1 m/S 603 mmHg 88%
    03:00 -4°C° 0.6 mm 1 m/S 603 mmHg 89%
    04:00 -4°C° 1.4 mm 1 m/S 603 mmHg 91%
    05:00 -4°C° 1.4 mm 1 m/S 602 mmHg 92%
    06:00 -3°C° 1.4 mm 1 m/S 602 mmHg 94%
    07:00 -3°C° 1.8 mm 1 m/S 601 mmHg 94%
    08:00 -3°C° 1.8 mm 1 m/S 601 mmHg 94%
    09:00 -2°C° 1.8 mm 1 m/S 601 mmHg 94%
    10:00 -4°C° 2.5 mm 2 m/S 601 mmHg 94%
    11:00 -5°C° 2.5 mm 3 m/S 601 mmHg 95%
    12:00 -6°C° 2.5 mm 5 m/S 601 mmHg 95%
    13:00 -7°C° 1.7 mm 5 m/S 601 mmHg 95%
    14:00 -8°C° 1.7 mm 5 m/S 600 mmHg 95%
    15:00 -8°C° 1.7 mm 5 m/S 600 mmHg 96%
    16:00 -10°C° 1.7 mm 5 m/S 600 mmHg 96%
    17:00 -10°C° 1.7 mm 6 m/S 601 mmHg 96%
    18:00 -11°C° 1.7 mm 7 m/S 601 mmHg 97%
    19:00 -12°C° 1.1 mm 7 m/S 601 mmHg 96%
    20:00 -13°C° 1.1 mm 7 m/S 601 mmHg 96%
    21:00 -13°C° 1.1 mm 8 m/S 602 mmHg 96%
    22:00 -13°C° 0.6 mm 8 m/S 602 mmHg 95%
    23:00 -15°C° 0.6 mm 8 m/S 602 mmHg 95%

    Morgen, 24 Januar, Donnerstag

    Zeit Temperatur Niederschläge Wind Luftdruck Luftfeuchtigkeit
    00:00 -15°C° 0.6 mm 8 m/S 602 mmHg 95%
    01:00 -15°C° 0.6 mm 8 m/S 602 mmHg 95%
    02:00 -15°C° 0.6 mm 8 m/S 602 mmHg 95%
    03:00 -16°C° 0.6 mm 8 m/S 603 mmHg 94%
    04:00 -15°C° 0.6 mm 7 m/S 603 mmHg 94%
    05:00 -15°C° 0.6 mm 6 m/S 603 mmHg 94%
    06:00 -14°C° 0.6 mm 5 m/S 604 mmHg 94%
    07:00 -14°C° 0.3 mm 5 m/S 604 mmHg 94%
    08:00 -14°C° 0.3 mm 4 m/S 605 mmHg 93%
    09:00 -12°C° 0.3 mm 4 m/S 605 mmHg 92%
    10:00 -12°C° 0.3 mm 4 m/S 606 mmHg 91%
    11:00 -11°C° 0.3 mm 4 m/S 606 mmHg 89%
    12:00 -12°C° 0.3 mm 5 m/S 606 mmHg 88%
    13:00 -12°C° 0.2 mm 5 m/S 606 mmHg 89%
    14:00 -12°C° 0.2 mm 5 m/S 606 mmHg 89%
    15:00 -12°C° 0.2 mm 5 m/S 606 mmHg 90%
    16:00 -12°C° 0.1 mm 4 m/S 606 mmHg 91%
    17:00 -14°C° 0.1 mm 4 m/S 607 mmHg 91%
    18:00 -15°C° 0.1 mm 4 m/S 607 mmHg 92%
    19:00 -15°C° 0.1 mm 4 m/S 607 mmHg 91%
    20:00 -15°C° 0.1 mm 4 m/S 608 mmHg 90%
    21:00 -15°C° 0.1 mm 4 m/S 608 mmHg 89%
    22:00 -15°C° 0 mm 4 m/S 608 mmHg 89%
    23:00 -15°C° 0 mm 4 m/S 608 mmHg 88%

    übermorgen, 25 Januar, Freitag

    Zeit Temperatur Niederschläge Wind Luftdruck Luftfeuchtigkeit
    00:00 -15°C° 0 mm 4 m/S 608 mmHg 88%
    01:00 -15°C° 0 mm 4 m/S 608 mmHg 86%
    02:00 -15°C° 0 mm 4 m/S 608 mmHg 84%
    03:00 -15°C° 0 mm 4 m/S 608 mmHg 81%
    04:00 -12°C° 0.1 mm 4 m/S 609 mmHg 84%
    05:00 -10°C° 0.1 mm 4 m/S 610 mmHg 86%
    06:00 -9°C° 0.1 mm 4 m/S 610 mmHg 88%
    07:00 -7°C° 0.4 mm 5 m/S 611 mmHg 89%
    08:00 -6°C° 0.4 mm 5 m/S 611 mmHg 90%
    09:00 -4°C° 0.4 mm 5 m/S 612 mmHg 92%
    10:00 -4°C° 1 mm 6 m/S 612 mmHg 92%
    11:00 -4°C° 1 mm 6 m/S 612 mmHg 93%
    12:00 -4°C° 1 mm 6 m/S 612 mmHg 93%
    13:00 -4°C° 0.9 mm 6 m/S 612 mmHg 93%
    14:00 -3°C° 0.9 mm 6 m/S 612 mmHg 92%
    15:00 -3°C° 0.9 mm 6 m/S 611 mmHg 92%
    16:00 -4°C° 0.6 mm 6 m/S 612 mmHg 92%
    17:00 -4°C° 0.6 mm 7 m/S 612 mmHg 91%
    18:00 -4°C° 0.6 mm 7 m/S 613 mmHg 91%
    19:00 -4°C° 0.4 mm 7 m/S 613 mmHg 91%
    20:00 -4°C° 0.4 mm 7 m/S 613 mmHg 91%
    21:00 -4°C° 0.4 mm 7 m/S 614 mmHg 91%
    22:00 -6°C° 0 mm 7 m/S 614 mmHg 91%
    23:00 -5°C° 0 mm 6 m/S 614 mmHg 91%

    26 Januar, Samstag

    Zeit Temperatur Niederschläge Wind Luftdruck Luftfeuchtigkeit
    00:00 -5°C° 0 mm 6 m/S 614 mmHg 91%
    01:00 -6°C° 0 mm 5 m/S 614 mmHg 91%
    02:00 -6°C° 0 mm 5 m/S 614 mmHg 91%
    03:00 -6°C° 0 mm 5 m/S 614 mmHg 91%
    04:00 -5°C° 0 mm 4 m/S 614 mmHg 91%
    05:00 -5°C° 0 mm 4 m/S 615 mmHg 92%
    06:00 -5°C° 0 mm 4 m/S 615 mmHg 93%
    07:00 -5°C° 0 mm 3 m/S 615 mmHg 93%
    08:00 -4°C° 0 mm 3 m/S 615 mmHg 94%
    09:00 -4°C° 0 mm 3 m/S 616 mmHg 94%
    10:00 -2°C° 0 mm 3 m/S 616 mmHg 95%
    11:00 -1°C° 0 mm 3 m/S 616 mmHg 96%
    12:00 -1°C° 0 mm 3 m/S 616 mmHg 97%
    13:00 -1°C° 0 mm 2 m/S 616 mmHg 96%
    14:00 -1°C° 0 mm 2 m/S 615 mmHg 96%
    15:00 -1°C° 0 mm 2 m/S 615 mmHg 95%
    16:00 -3°C° 0 mm 2 m/S 614 mmHg 94%
    17:00 -4°C° 0 mm 2 m/S 613 mmHg 93%
    18:00 -6°C° 0 mm 2 m/S 612 mmHg 92%
    19:00 -7°C° 0 mm 2 m/S 612 mmHg 91%
    20:00 -7°C° 0 mm 2 m/S 612 mmHg 90%
    21:00 -8°C° 0 mm 2 m/S 612 mmHg 90%
    22:00 -8°C° 0 mm 2 m/S 611 mmHg 89%
    23:00 -8°C° 0 mm 2 m/S 611 mmHg 89%

    27 Januar, Sonntag

    Zeit Temperatur Niederschläge Wind Luftdruck Luftfeuchtigkeit
    00:00 -8°C° 0 mm 2 m/S 611 mmHg 88%
    01:00 -7°C° 0 mm 2 m/S 611 mmHg 88%
    02:00 -5°C° 0 mm 2 m/S 610 mmHg 88%
    03:00 -4°C° 0 mm 2 m/S 610 mmHg 89%
    04:00 -3°C° 0.4 mm 2 m/S 610 mmHg 90%
    05:00 -2°C° 0.4 mm 2 m/S 610 mmHg 92%
    06:00 -1°C° 0.4 mm 3 m/S 611 mmHg 94%
    07:00 -2°C° 0.4 mm 3 m/S 611 mmHg 94%
    08:00 -4°C° 0.4 mm 4 m/S 611 mmHg 93%
    09:00 -5°C° 0.4 mm 5 m/S 611 mmHg 92%
    10:00 -6°C° 0.1 mm 5 m/S 610 mmHg 91%
    11:00 -7°C° 0.1 mm 5 m/S 610 mmHg 89%
    12:00 -7°C° 0.1 mm 4 m/S 610 mmHg 87%
    13:00 -8°C° 0 mm 4 m/S 610 mmHg 86%
    14:00 -8°C° 0 mm 5 m/S 609 mmHg 86%
    15:00 -10°C° 0 mm 5 m/S 609 mmHg 86%
    16:00 -11°C° 0.1 mm 5 m/S 609 mmHg 88%
    17:00 -12°C° 0.1 mm 5 m/S 608 mmHg 90%
    18:00 -12°C° 0.1 mm 5 m/S 608 mmHg 92%
    19:00 -13°C° 0.1 mm 5 m/S 608 mmHg 92%
    20:00 -13°C° 0.1 mm 5 m/S 608 mmHg 92%
    21:00 -13°C° 0.1 mm 5 m/S 609 mmHg 92%
    22:00 -13°C° 0.3 mm 5 m/S 609 mmHg 92%
    23:00 -13°C° 0.3 mm 5 m/S 608 mmHg 93%

    28 Januar, Montag

    Zeit Temperatur Niederschläge Wind Luftdruck Luftfeuchtigkeit
    00:00 -13°C° 0.3 mm 5 m/S 608 mmHg 94%
    01:00 -12°C° 0.4 mm 4 m/S 608 mmHg 93%
    02:00 -12°C° 0.4 mm 4 m/S 608 mmHg 93%
    03:00 -12°C° 0.4 mm 4 m/S 608 mmHg 93%
    04:00 -12°C° 0.4 mm 4 m/S 608 mmHg 93%
    05:00 -12°C° 0.4 mm 4 m/S 608 mmHg 93%
    06:00 -12°C° 0.4 mm 4 m/S 607 mmHg 92%
    07:00 -13°C° 0.5 mm 5 m/S 608 mmHg 92%
    08:00 -13°C° 0.5 mm 5 m/S 608 mmHg 91%
    09:00 -12°C° 0.5 mm 6 m/S 608 mmHg 90%
    10:00 -12°C° 0.4 mm 6 m/S 608 mmHg 89%
    11:00 -13°C° 0.4 mm 7 m/S 608 mmHg 89%
    12:00 -13°C° 0.4 mm 7 m/S 608 mmHg 88%
    13:00 -13°C° 0.5 mm 7 m/S 608 mmHg 89%
    14:00 -13°C° 0.5 mm 7 m/S 608 mmHg 89%
    15:00 -13°C° 0.5 mm 7 m/S 608 mmHg 90%
    16:00 -13°C° 1.2 mm 7 m/S 608 mmHg 91%
    17:00 -13°C° 1.2 mm 7 m/S 608 mmHg 92%
    18:00 -12°C° 1.2 mm 6 m/S 608 mmHg 93%
    19:00 -12°C° 0.6 mm 6 m/S 608 mmHg 93%
    20:00 -14°C° 0.6 mm 6 m/S 609 mmHg 93%
    21:00 -14°C° 0.6 mm 5 m/S 609 mmHg 93%
    22:00 -14°C° 0.2 mm 5 m/S 609 mmHg 92%
    23:00 -14°C° 0.2 mm 5 m/S 609 mmHg 92%
    Mehr zeigen